Orbital Elements at Epoch 2459000.5 (2020-May-31.0) TDB
Reference: JPL 18 (heliocentric ecliptic J2000)
Element | Value | Uncertainty (1-sigma) | Units |
e | .193129640933084 | 3.7043e-08 | |
a | 2.337602293730124 | 1.285e-08 | au |
q | 1.886142002097672 | 8.4274e-08 | au |
i | 3.429206145199702 | 4.2334e-06 | deg |
node | 69.27655748638156 | 8.0365e-05 | deg |
peri | 179.4183640473883 | 8.1589e-05 | deg |
M | 124.9501167885833 | 1.3766e-05 | deg |
tp | 2458547.405772117146 (2019-Mar-04.90577212) | 4.8953e-05 | TDB |
period | 1305.432329557703 3.57 | 1.0764e-05 2.947e-08 | d yr |
n | .275770709709612 | 2.274e-09 | deg/d |
Q | 2.789062585362577 | 1.5332e-08 | au |
|
| | Orbit Determination Parameters
Additional Information
|